Weather History for Ponca City, OK

Change the Weather History Date:

Wednesday, January 25, 2012

  Actual Average Record
Temperature  
Mean Temperature 45 °F -  
Max Temperature 57 °F 53 °F 80 °F (1950)
Min Temperature 30 °F 30 °F 9 °F (1961)
Degree Days  
Heating Degree Days 20    
Moisture  
Dew Point 39 °F    
Average Humidity 84    
Maximum Humidity 100    
Minimum Humidity 47    
Precipitation  
Precipitation 0.17 in - - ()
Sea Level Pressure  
Sea Level Pressure 30.05 in    
Wind  
Wind Speed 4 mph (North)    
Max Wind Speed 12 mph    
Max Gust Speed -    
Visibility 7 miles    
Events Rain    
Averages and records for this station are not official NWS values.
T = Trace of Precipitation, MM = Missing Value Source: NWS Daily Summary

Daily Weather History Graph

Daily Weather History Graph

Search for Another Location

Airport:

Trip Planner

Search our weather history database for the weather conditions in past years. The results will help you decide how hot, cold, wet, or windy it might be!

Date:

Astronomy

Jan. 25, 2012 Rise Set
Actual Time 7:35 AM CST 5:45 PM CST
Civil Twilight 7:08 AM CST 6:13 PM CST
Nautical Twilight 6:36 AM CST 6:45 PM CST
Astronomical Twilight 6:06 AM CST 7:15 PM CST
Moon 8:41 AM CST 8:34 PM CST
Length of Visible Light 11h 05m
Length of Day
10h 10m
Waxing Crescent, 7% of the Moon is Illuminated
Jan 25
Waxing Crescent
Jan 30
First Quarter
Feb 7
Full
Feb 14
Last Quarter
Feb 21
New

Hourly Weather History & Observations

Time (CST) Temp. Windchill Dew Point Humidity Pressure Visibility Wind Dir Wind Speed Gust Speed Precip Events Conditions
12:53 AM 46.0 °F - 42.1 °F 86% 30.11 in 7.0 mi Calm Calm - 0.07 in Rain Light Rain
1:53 AM 46.0 °F - 42.1 °F 86% 30.10 in 8.0 mi Calm Calm - 0.05 in Rain Light Rain
2:53 AM 45.0 °F 41.2 °F 43.0 °F 93% 30.12 in 6.0 mi NNW 6.9 mph - 0.04 in Rain Light Rain
3:53 AM 45.0 °F 41.2 °F 43.0 °F 93% 30.11 in 7.0 mi North 6.9 mph - 0.01 in   Overcast
4:34 AM 44.6 °F 41.4 °F 42.8 °F 93% 30.09 in 8.0 mi NE 5.8 mph - N/A   Mostly Cloudy
4:53 AM 44.1 °F 40.8 °F 42.1 °F 93% 30.08 in 8.0 mi NNE 5.8 mph - N/A   Scattered Clouds
5:07 AM 42.8 °F 41.1 °F 42.8 °F 100% 30.09 in 6.0 mi North 3.5 mph - N/A   Mostly Cloudy
5:53 AM 44.1 °F 41.5 °F 42.1 °F 93% 30.04 in 5.0 mi NE 4.6 mph - N/A   Overcast
6:20 AM 42.8 °F 41.1 °F 39.2 °F 87% 30.05 in 5.0 mi East 3.5 mph - N/A   Scattered Clouds
6:53 AM 39.9 °F - 39.0 °F 97% 30.04 in 5.0 mi Calm Calm - N/A   Mostly Cloudy
7:46 AM 41.0 °F - 39.2 °F 93% 30.09 in 2.5 mi Calm Calm - N/A   Overcast
7:53 AM 42.1 °F - 39.9 °F 92% 30.10 in 3.0 mi Calm Calm - N/A   Overcast
8:05 AM 42.8 °F - 39.2 °F 87% 30.10 in 2.0 mi Calm Calm - N/A   Overcast
8:12 AM 41.0 °F - 39.2 °F 93% 30.10 in 1.8 mi Calm Calm - N/A   Mostly Cloudy
8:25 AM 41.0 °F - 39.2 °F 93% 30.11 in 2.0 mi Calm Calm - N/A   Mostly Cloudy
8:37 AM 42.8 °F 40.1 °F 39.2 °F 87% 30.12 in 3.0 mi WNW 4.6 mph - N/A   Overcast
8:53 AM 43.0 °F 37.2 °F 41.0 °F 93% 30.12 in 4.0 mi WNW 10.4 mph - N/A   Overcast
9:08 AM 44.6 °F 40.7 °F 41.0 °F 87% 30.12 in 6.0 mi NW 6.9 mph - N/A   Overcast
9:33 AM 44.6 °F 42.2 °F 42.8 °F 93% 30.15 in 7.0 mi North 4.6 mph - N/A   Overcast
9:53 AM 44.1 °F 40.8 °F 41.0 °F 89% 30.14 in 8.0 mi North 5.8 mph - N/A   Overcast
10:08 AM 44.6 °F 40.7 °F 41.0 °F 87% 30.11 in 7.0 mi NNW 6.9 mph - N/A   Overcast
10:32 AM 42.8 °F 37.0 °F 39.2 °F 87% 30.11 in 10.0 mi NNW 10.4 mph - N/A   Overcast
10:53 AM 43.0 °F 37.7 °F 39.0 °F 86% 30.12 in 10.0 mi North 9.2 mph - N/A   Overcast
11:53 AM 43.0 °F 37.2 °F 39.0 °F 86% 30.10 in 10.0 mi North 10.4 mph - N/A   Overcast
12:53 PM 48.2 °F - 39.2 °F 71% 30.01 in 10.0 mi NNE 6.9 mph - N/A   Overcast
1:53 PM 55.0 °F - 39.9 °F 57% 29.95 in 10.0 mi North 9.2 mph - N/A   Clear
2:53 PM 57.0 °F - 37.0 °F 47% 29.93 in 10.0 mi North 6.9 mph - N/A   Clear
3:53 PM 52.0 °F - 37.0 °F 57% 29.95 in 10.0 mi NNW 11.5 mph - N/A   Clear
4:53 PM 52.0 °F - 35.1 °F 53% 29.96 in 10.0 mi NNW 10.4 mph - N/A   Clear
5:53 PM 48.0 °F - 36.0 °F 63% 29.93 in 10.0 mi NNW 10.4 mph - N/A   Clear
6:53 PM 42.1 °F 37.7 °F 34.0 °F 73% 29.97 in 10.0 mi North 6.9 mph - N/A   Clear
7:53 PM 37.9 °F 32.7 °F 32.0 °F 79% 29.96 in 9.0 mi North 6.9 mph - N/A   Clear
8:53 PM 39.0 °F 34.8 °F 32.0 °F 76% 29.94 in 9.0 mi NNE 5.8 mph - N/A   Clear
9:53 PM 33.8 °F - 30.2 °F 87% 29.94 in 8.0 mi Calm Calm - N/A   Clear
10:53 PM 34.0 °F - 30.0 °F 85% 29.98 in 8.0 mi Calm Calm - N/A   Clear
11:53 PM 30.0 °F 24.1 °F 27.0 °F 88% 29.95 in 7.0 mi North 5.8 mph - N/A   Clear